{"data":{"norad_id":56019,"intl_designator":"2023-042AK","name":"STARLINK-5949","alt_names":[],"object_type":"PAYLOAD","status":"ACTIVE","operator":null,"country":"US","launch_date":"2023-03-24","launch_site_code":"AFETR","launch_vehicle":null,"mission":null,"orbit_class":"UNKNOWN","rcs_meters":null,"size_class":null,"mass_kg":null,"dimensions":null,"purposes":["comms"],"wikipedia_slug":null,"has_3d_model":false,"image_url":null,"decayed_at":null,"tle_current":{"epoch":"2026-09-20T01:45:49.283712Z","epoch_age_seconds":142962,"freshness":"FRESH","line1":"1 56019U 23042AK  26263.07348708  .00001224  00000+0  54013-4 0  9993","line2":"2 56019  43.0053  27.4801 0001609 283.1602  76.9070 15.27575302192769","mean_motion":15.27575302,"eccentricity":0.0001609,"inclination_deg":43.0053,"raan_deg":27.4801,"arg_perigee_deg":283.1602,"mean_anomaly_deg":76.907,"bstar":5.4013e-5,"rev_number":19276,"period_min":94.267038627468,"perigee_km":481.95919647148,"apogee_km":484.16713068412,"semimajor_km":6861.2001635778,"source":"CELESTRAK","updated_at":"2026-09-21T09:00:33.356122Z"}}}